STARLINK-3125, 49451

Orbit data source: Space-Track

STARLINK-3125, 49451 is a payload satellite owned by SpaceX/Seattle (US) in LEO that was launched on Sat, 13 Nov 2021 UTC via an FALCON 9 launch vehicle from the Air Force Eastern Test Range (AFETR). Payload-class satellites include a variety of spacecraft equipped with specific instruments for various scientific and technological missions. These include communications satellites like Starlink; space stations such as the ISS; scientific satellites like the Hubble; Earth observation satellites from companies like Planet Labs, Umbra, and HawkEye 360; GPS; miniature CubeSats for education and research; and military/defense satellites.

Loading next visibility...
Identifier
49451, 2021-104AV
Orbit
LEO
Country
Flag of USUS
Related business
Manufacturer
SpaceX/Seattle
Mission
Operational Commercial Communications
Bus & Motor
STARLINK, Unknown motor
Mass
290 kg wet, ~270 kg dry
Launch date (UTC)
2021-11-13 (5 years ago)
Launch vehicle
FALCON 9
Launch site
Air Force Eastern Test Range (AFETR)
Object type
Payload
Rocket body
Debris
Shape & HBR
Box + 1 Pan, 10.1 m
Radar Cross Section
13.562 m², Large (>1 m²)

Expand to show TLE details & history
Last TLE update: 1 week ago

TLE from 1 week ago
0 STARLINK-3125
1 49451U 21104AV  26154.32811949  .00000259  00000-0  34368-4 0  9990
2 49451  53.1846 194.6630 0001279 108.4580 251.6551 15.08860137251705
Epoch: 2026-06-03T07:52Z
TLE epoch observation values (Epoch: 2026-06-03T07:52:29.523Z)
Latitude
-0.00003°
Longitude
-175.24835°
Altitude
540.854 km
Speed
7.593 km/s
True Right ascension
12h 58m 39s
True Declination
0° 00' 00"
Sunlit
Object was in full shadow at epoch
Visualization orbit readout
Latitude
Unknown
Longitude
Unknown
Altitude
Unknown
Speed
Unknown
Apparent Right ascension
Unknown
Apparent Declination
Unknown
Sunlit
N/A
Visualization observer readout
Local Sidereal Time
16:13:45
Azimuth
Unknown
Elevation
Unknown
Doppler factor
Unknown
Orbital elements
Apogee altitude
540.817 km
Perigee altitude
539.047 km
Semi-major axis
6,918.069 km
Eccentricity
0.00013
Inclination
53.1846°
RAAN
194.663°
Arg. of periapsis
108.458°
True anomaly
251.64119°
Mean anomaly
251.6551°
Eccentric anomaly
251.64814°
Mean motion
3.77195 °/min
Orbital period
95.44 mins
BSTAR
0.000034368
Loading maneuver chart data...
Computing Atmospheric mass density...
Loading historical data...
Loading historical data...
Loading historical data...
Loading historical data...
Loading historical data...
Loading historical data...
Loading historical data...

Documentation

Showing up to 5 results
|